Starlink 6129

operational
NORAD ID: 57116 Int'l Des: 2023-090 Owner: SPXS Country: US Constellation: starlink
LEOCIRCULAR

About Starlink 6129

Description loading...

Live Position

Loading 3D Globe...

Upcoming Passes

Altitude History

Altitude vs Time

uPlot chart will show altitude changes over time

Two-Line Element Set

1 57116U 23090R 25303.93287605 -.00001066 00000-0 -63889-4 0 9990
2 57116 43.0039 259.7962 0001023 266.8380 93.2345 15.02531189130892
Epoch: Oct 30, 2025 • Age: 8 hours

Current Status

Altitude 571.6 km
Velocity 7.58 km/s
Sub-Earth Point -42.85°S, 30.71°E
Launch Date Jun 23, 2023
Age 2.3 years
Type internet

Technical Details

Classification Payload
Mass 305.00 kg
Dry Mass 290.00 kg
Total Mass 305.00 kg
Length 0.20 m
Diameter 2.80 m
Span 9.00 m
Shape Box + pan
Manufacturer SPXS
Bus Type Starlink
Phase Status In Orbit
Owner/State SPXS/US

Large Constellations

Loading constellations...